| time (UTC) | temp F | wind direction | speed knots | gust knots | rain 1hr in | rain 24hr in | rain mn in | humidity % | barometer mb |
| 20260506121938 | 74 | 288 | 4.3 | 13.9 | 0.00 | 0.00 | 0.00 | 60 | 1003.8 |
| 20260506120937 | 74 | 23 | 3.5 | 6.1 | 0.00 | 0.00 | 0.00 | 53 | 1003.9 |
| 20260506115937 | 75 | 21 | 2.6 | 7.0 | 0.00 | 0.00 | 0.00 | 56 | 1004.1 |
| 20260506113937 | 75 | 359 | 1.7 | 7.0 | 0.00 | 0.00 | 0.00 | 53 | 1004.4 |
| 20260506112936 | 74 | 23 | 2.6 | 8.7 | 0.00 | 0.00 | 0.00 | 54 | 1004.6 |
| 20260506111936 | 73 | 20 | 1.7 | 4.3 | 0.00 | 0.00 | 0.00 | 53 | 1004.8 |
| 20260506110936 | 73 | 0 | 1.7 | 4.3 | 0.00 | 0.00 | 0.00 | 55 | 1004.9 |
| 20260506104935 | 71 | 4 | 2.6 | 6.1 | 0.00 | 0.00 | 0.00 | 57 | 1005.4 |
| 20260506103934 | 71 | 187 | 2.6 | 8.7 | 0.00 | 0.00 | 0.00 | 56 | 1005.6 |
| 20260506102934 | 71 | 25 | 4.3 | 10.4 | 0.00 | 0.00 | 0.00 | 56 | 1005.6 |
| 20260506101934 | 70 | 32 | 3.5 | 7.8 | 0.00 | 0.00 | 0.00 | 59 | 1005.6 |
| 20260506100933 | 70 | 31 | 4.3 | 7.0 | 0.00 | 0.00 | 0.00 | 63 | 1005.7 |
| 20260506095933 | 69 | 20 | 2.6 | 7.8 | 0.00 | 0.00 | 0.00 | 65 | 1005.8 |
| 20260506094932 | 68 | 214 | 4.3 | 8.7 | 0.00 | 0.00 | 0.00 | 64 | 1006.0 |
| 20260506093932 | 68 | 288 | 4.3 | 7.8 | 0.00 | 0.00 | 0.00 | 69 | 1006.0 |
| 20260506092932 | 66 | 15 | 4.3 | 8.7 | 0.00 | 0.00 | 0.00 | 72 | 1006.0 |
| 20260506091931 | 67 | 288 | 4.3 | 7.8 | 0.00 | 0.00 | 0.00 | 69 | 1006.1 |
| 20260506090931 | 68 | 288 | 3.5 | 7.8 | 0.00 | 0.00 | 0.00 | 67 | 1006.0 |
| 20260506085931 | 68 | 11 | 4.3 | 8.7 | 0.00 | 0.00 | 0.00 | 70 | 1006.0 |
| 20260506083930 | 67 | 333 | 5.2 | 8.7 | 0.00 | 0.00 | 0.00 | 66 | 1006.2 |
| 20260506081929 | 69 | 27 | 3.5 | 6.1 | 0.00 | 0.00 | 0.00 | 63 | 1006.2 |
| 20260506080929 | 69 | 353 | 2.6 | 7.0 | 0.00 | 0.00 | 0.00 | 62 | 1006.3 |
| 20260506072928 | 74 | 203 | 0.0 | 2.6 | 0.00 | 0.00 | 0.00 | 58 | 1006.6 |
| 20260506071927 | 72 | 0 | 0.0 | 0.0 | 0.00 | 0.00 | 0.00 | 65 | 1006.7 |
| 20260506070927 | 70 | 188 | 0.0 | 0.9 | 0.00 | 0.00 | 0.00 | 71 | 1006.9 |
| 20260506061925 | 61 | 0 | 0.0 | 0.0 | 0.00 | 0.00 | 0.00 | 86 | 1007.3 |
| 20260506050922 | 54 | 0 | 0.0 | 0.0 | 0.00 | 0.00 | 0.00 | 96 | 1007.6 |
| 20260506044921 | 52 | 13 | 1.7 | 2.6 | 0.00 | 0.00 | 0.00 | 97 | 1007.6 |
| 20260506043921 | 52 | 195 | 0.9 | 4.3 | 0.00 | 0.00 | 0.00 | 97 | 1007.6 |
| 20260506042921 | 53 | 0 | 0.0 | 0.0 | 0.00 | 0.00 | 0.00 | 95 | 1007.4 |
| 20260506041920 | 54 | 0 | 0.0 | 0.0 | 0.00 | 0.00 | 0.00 | 92 | 1007.4 |
| 20260506040920 | 55 | 35 | 0.0 | 1.7 | 0.00 | 0.00 | 0.00 | 91 | 1007.6 |
| 20260506035920 | 56 | 53 | 0.9 | 1.7 | 0.00 | 0.00 | 0.00 | 88 | 1007.8 |
| 20260506034920 | 57 | 0 | 0.0 | 0.0 | 0.00 | 0.00 | 0.00 | 86 | 1008.0 |
| 20260506032919 | 57 | 132 | 2.6 | 4.3 | 0.00 | 0.00 | 0.00 | 84 | 1008.0 |
| 20260506031918 | 56 | 122 | 1.7 | 4.3 | 0.00 | 0.00 | 0.00 | 88 | 1008.3 |
| 20260506030918 | 56 | 110 | 1.7 | 5.2 | 0.00 | 0.00 | 0.00 | 92 | 1008.5 |
| 20260506024917 | 57 | 162 | 1.7 | 4.3 | 0.00 | 0.00 | 0.00 | 90 | 1008.0 |
| 20260506023917 | 57 | 149 | 1.7 | 4.3 | 0.00 | 0.00 | 0.00 | 88 | 1008.0 |
| 20260506022917 | 57 | 138 | 1.7 | 5.2 | 0.00 | 0.00 | 0.00 | 89 | 1008.0 |
| 20260506020916 | 57 | 148 | 2.6 | 4.3 | 0.00 | 0.00 | 0.00 | 91 | 1008.3 |
| 20260506015915 | 57 | 143 | 1.7 | 3.5 | 0.00 | 0.00 | 0.00 | 92 | 1008.5 |
| 20260506014915 | 57 | 135 | 0.9 | 2.6 | 0.00 | 0.00 | 0.00 | 92 | 1008.4 |
| 20260506013915 | 56 | 205 | 1.7 | 4.3 | 0.00 | 0.00 | 0.00 | 93 | 1008.3 |
| 20260506011914 | 56 | 204 | 0.9 | 2.6 | 0.00 | 0.00 | 0.00 | 93 | 1008.4 |
| 20260506010914 | 56 | 159 | 1.7 | 4.3 | 0.00 | 0.00 | 0.00 | 93 | 1008.4 |
| 20260506005913 | 56 | 136 | 0.9 | 4.3 | 0.00 | 0.00 | 0.00 | 94 | 1008.5 |
| 20260506003913 | 57 | 200 | 0.9 | 3.5 | 0.00 | 0.00 | 0.00 | 94 | 1008.7 |
| 20260506002912 | 57 | 101 | 0.9 | 2.6 | 0.00 | 0.00 | 0.00 | 93 | 1008.5 |
| 20260506001912 | 57 | 0 | 0.0 | 0.0 | 0.00 | 0.00 | 0.00 | 93 | 1008.4 |
| 20260506000911 | 57 | 176 | 0.9 | 4.3 | 0.00 | 0.00 | 0.00 | 92 | 1008.8 |
| 20260505235911 | 57 | 208 | 0.9 | 1.7 | 0.00 | 0.00 | 0.00 | 91 | 1008.9 |
| 20260505234911 | 57 | 194 | 2.6 | 5.2 | 0.00 | 0.00 | 0.00 | 91 | 1009.0 |
| 20260505233910 | 58 | 190 | 0.9 | 2.6 | 0.00 | 0.00 | 0.00 | 91 | 1009.1 |
| 20260505232910 | 58 | 0 | 0.0 | 0.0 | 0.00 | 0.00 | 0.00 | 91 | 1009.1 |
| 20260505231910 | 58 | 195 | 0.0 | 1.7 | 0.00 | 0.00 | 0.00 | 90 | 1009.1 |
| 20260505230909 | 59 | 221 | 0.0 | 2.6 | 0.00 | 0.00 | 0.00 | 89 | 1009.1 |
| 20260505225909 | 59 | 214 | 1.7 | 5.2 | 0.00 | 0.00 | 0.00 | 89 | 1009.1 |
| 20260505224908 | 59 | 243 | 0.9 | 3.5 | 0.00 | 0.00 | 0.00 | 88 | 1009.1 |
| 20260505223908 | 59 | 201 | 3.5 | 7.8 | 0.00 | 0.00 | 0.00 | 88 | 1009.1 |
| 20260505222908 | 59 | 204 | 3.5 | 7.0 | 0.00 | 0.00 | 0.00 | 88 | 1009.1 |
| 20260505221907 | 59 | 207 | 1.7 | 3.5 | 0.00 | 0.00 | 0.00 | 89 | 1009.0 |
| 20260505220907 | 59 | 183 | 0.0 | 0.9 | 0.00 | 0.00 | 0.00 | 93 | 1008.7 |
| 20260505215906 | 59 | 0 | 0.0 | 0.0 | 0.00 | 0.00 | 0.00 | 93 | 1008.7 |
| 20260505214906 | 59 | 0 | 0.0 | 0.0 | 0.00 | 0.00 | 0.00 | 93 | 1008.5 |
| 20260505213906 | 59 | 0 | 0.0 | 0.0 | 0.00 | 0.00 | 0.00 | 90 | 1008.1 |
| 20260505212906 | 59 | 75 | 0.0 | 0.9 | 0.00 | 0.00 | 0.00 | 90 | 1007.9 |
| 20260505211905 | 59 | 146 | 0.0 | 1.7 | 0.00 | 0.00 | 0.00 | 91 | 1007.6 |
| 20260505210905 | 59 | 127 | 0.0 | 3.5 | 0.00 | 0.00 | 0.00 | 92 | 1007.8 |
| 20260505205905 | 59 | 214 | 0.0 | 0.9 | 0.00 | 0.00 | 0.00 | 94 | 1007.7 |
| 20260505204904 | 59 | 148 | 0.9 | 2.6 | 0.00 | 0.00 | 0.00 | 94 | 1007.5 |
| 20260505203904 | 59 | 118 | 0.0 | 1.7 | 0.00 | 0.00 | 0.00 | 95 | 1007.3 |
| 20260505201903 | 59 | 198 | 0.9 | 3.5 | 0.00 | 0.00 | 0.00 | 95 | 1007.1 |
| 20260505195902 | 59 | 174 | 0.9 | 2.6 | 0.00 | 0.00 | 0.00 | 95 | 1006.5 |
| 20260505194902 | 58 | 155 | 0.9 | 5.2 | 0.00 | 0.00 | 0.00 | 96 | 1006.2 |
| 20260505193902 | 58 | 125 | 1.7 | 4.3 | 0.00 | 0.00 | 0.00 | 97 | 1006.1 |
| 20260505192901 | 59 | 155 | 0.9 | 4.3 | 0.00 | 0.00 | 0.00 | 96 | 1005.9 |
| 20260505191901 | 59 | 204 | 0.9 | 2.6 | 0.00 | 0.00 | 0.00 | 95 | 1005.8 |
| 20260505190900 | 60 | 0 | 0.0 | 0.0 | 0.00 | 0.00 | 0.00 | 89 | 1005.7 |
| 20260505185900 | 61 | 0 | 0.0 | 0.0 | 0.00 | 0.00 | 0.00 | 88 | 1005.5 |
| 20260505184900 | 62 | 0 | 0.0 | 0.0 | 0.00 | 0.00 | 0.00 | 86 | 1005.4 |
| 20260505183859 | 63 | 0 | 0.0 | 0.0 | 0.00 | 0.00 | 0.00 | 83 | 1005.3 |
| 20260505182859 | 63 | 53 | 0.0 | 2.6 | 0.00 | 0.00 | 0.00 | 82 | 1005.2 |
| 20260505181859 | 63 | 21 | 3.5 | 4.3 | 0.00 | 0.00 | 0.00 | 83 | 1005.3 |
| 20260505180858 | 62 | 31 | 3.5 | 6.1 | 0.00 | 0.00 | 0.00 | 83 | 1005.3 |
| 20260505175858 | 62 | 42 | 3.5 | 5.2 | 0.00 | 0.00 | 0.00 | 86 | 1005.3 |
| 20260505174857 | 62 | 25 | 2.6 | 4.3 | 0.00 | 0.00 | 0.00 | 84 | 1005.4 |
| 20260505173857 | 63 | 338 | 1.7 | 4.3 | 0.00 | 0.00 | 0.00 | 82 | 1005.5 |
| 20260505172857 | 63 | 314 | 0.9 | 2.6 | 0.00 | 0.00 | 0.00 | 80 | 1005.7 |
| 20260505171856 | 63 | 51 | 3.5 | 7.0 | 0.00 | 0.00 | 0.00 | 84 | 1005.8 |
| 20260505165856 | 64 | 173 | 3.5 | 7.8 | 0.00 | 0.00 | 0.00 | 76 | 1005.7 |
| 20260505164855 | 64 | 193 | 6.1 | 11.3 | 0.00 | 0.00 | 0.00 | 79 | 1005.6 |
| 20260505163855 | 64 | 207 | 6.1 | 13.0 | 0.00 | 0.00 | 0.00 | 79 | 1005.3 |
| 20260505162855 | 67 | 200 | 13.0 | 24.3 | 0.00 | 0.00 | 0.00 | 67 | 1005.1 |
| 20260505161854 | 74 | 191 | 4.3 | 11.3 | 0.00 | 0.00 | 0.00 | 45 | 1004.2 |
| 20260505160854 | 75 | 205 | 0.9 | 4.3 | 0.00 | 0.00 | 0.00 | 44 | 1004.0 |
| 20260505152852 | 76 | 7 | 1.7 | 5.2 | 0.00 | 0.00 | 0.00 | 48 | 1003.9 |
| 20260505151852 | 77 | 288 | 1.7 | 5.2 | 0.00 | 0.00 | 0.00 | 45 | 1003.9 |
| 20260505150852 | 77 | 288 | 1.7 | 5.2 | 0.00 | 0.00 | 0.00 | 48 | 1003.9 |
| 20260505124847 | 77 | 215 | 4.3 | 8.7 | 0.00 | 0.00 | 0.00 | 41 | 1004.8 |
| 20260505123846 | 77 | 160 | 4.3 | 10.4 | 0.00 | 0.00 | 0.00 | 40 | 1004.9 |
| 20260505122846 | 78 | 225 | 3.5 | 7.8 | 0.00 | 0.00 | 0.00 | 41 | 1005.2 |